sat.trackr.live / text

‹ back to catalog

STARLINK-31667

NORAD 59609 · 2024-080J

PAYLOAD ACTIVE UNKNOWN

§ Identity

Operator
Country
US
Launch date
2024-04-28
Launch site
AFETR
Launch vehicle
Mass (kg)
RCS (m²)

Purposes: comms

External: N2YO · Heavens-Above · Gunter

§ Orbital elements

Epoch: 2026-05-24T20:06:55.833408Z

Period
94.27 min
Inclination
42.9999°
Eccentricity
0.0001423
Mean motion
15.27588097 rev/d
Perigee alt
482.0 km
Apogee alt
484.0 km
Semi-major
6,861.2 km
B*
1.7797e-4
RAAN
323.9592°
Arg perigee
267.1951°
Mean anomaly
92.8737°
Rev number
11,622

§ Raw data

STARLINK-316671 59609U 24080J   26144.83814622  .00004640  00000+0  17797-3 0  99912 59609  42.9999 323.9592 0001423 267.1951  92.8737 15.27588097116227

JSON: /api/v1/satellites/59609 · /tle

For live sub-satellite position, see the globe view (requires WebGL).

§ Visibility from observer

Set your observer location to see the next 7 days of passes ≥ 10°. The values pass through the URL so the page stays shareable.

No JS? Fill the form by hand. The geolocation button needs JavaScript.